Location: Hamilton
(37.7830°S, 175.2830°E)
Time: 17:09:59
(UTC+13:00)

ISS - Pass Details

Date: 30 January 2019
Orbit: 403 x 411 km, 51.6° (Epoch: 20 February)

Event Time Altitude Azimuth Distance (km) Brightness Sun altitude
Exits shadow 05:25:45 20° 298° (WNW) 1,026 -2.4 -11.9°
Maximum altitude 05:27:54 66° 218° (SW) 457 -3.6 -11.5°
Drops below altitude 10° 05:31:14 10° 135° (SE) 1,495 0.5 -11.0°
Sets 05:33:21 0° 131° (SE) 2,361 2.1 -10.6°
